Location: Unspecified
(0.0000°N, 0.0000°E)
Time: 01:24:52
(UTC+00:00)

Vanguard 2 - Pass Details

Date: 15 December 2017
Orbit: 553 x 2939 km, 32.9° (Epoch: 23 June)

Event Time Altitude Azimuth Distance (km) Brightness Sun altitude
Rises 13:11:48 0° 259° (W) 6,303 12.5 60.2°
Reaches altitude 10° 13:17:25 10° 270° (W) 4,928 12.1 59.3°
Maximum altitude 13:27:34 26° 320° (NW) 2,981 10.8 57.7°
Drops below altitude 10° 13:34:39 10° 14° (NNE) 3,333 10.6 56.5°
Sets 13:37:38 0° 28° (NNE) 3,978 10.9 55.9°
